Location: C�an Torras
(41.5052°N, 1.9280°E)
Time: 21:55:01
(UTC+00:00)

Cosmos 1602 Rocket - Pass Details

Date: 20 January 2021
Orbit: 604 x 632 km, 82.5° (Epoch: 03 March)

Event Time Altitude Azimuth Distance (km) Brightness Sun altitude
Rises 18:24:06 0° 170° (S) 2,846 7.0 -16.8°
Reaches altitude 10° 18:26:22 10° 164° (SSE) 1,949 6.1 -17.2°
Maximum altitude 18:30:27 44° 93° (E) 850 3.8 -18.0°
Enters shadow 18:31:36 35° 53° (NE) 983 4.1 -18.2°
